NOAA NWS Hourly Roundups by Site

Regional Weather Roundup for Omaha, NE

To Select Another Site Choose from List

Select Site:  

000
ASUS43 KOAX 080210
RWRNE

WEATHER ROUNDUP FOR NEBRASKA
NATIONAL WEATHER SERVICE OMAHA NE
800 PM CST SAT DEC 07 2019

NOTES: SATELLITE DATA IS BEING USED TO AUGMENT CLOUD COVER ABOVE
       12000 FEET.
       "FAIR" INDICATES FEW OR NO CLOUDS BELOW 12,000 FEET WITH NO
       SIGNIFICANT WEATHER AND/OR OBSTRUCTIONS TO VISIBILITY.


NEZ001>004-019>022-054>056-080300-
NEBRASKA PANHANDLE

CITY           SKY/WX    TMP DP  RH WIND       PRES   REMARKS
SCOTTSBLUFF    FAIR      47  30  51 W16G28    29.87R
ALLIANCE       FAIR      38  29  70 W12       29.86R WCI  30
CHADRON        FAIR      36  28  73 SW6       29.85S WCI  31
GORDON         FAIR      43  31  62 W15       29.82S
KIMBALL        FAIR      44  28  52 NW24G31   29.89S
$$

NEZ057>060-069>072-079>082-080300-
SOUTHWEST NEBRASKA

CITY           SKY/WX    TMP DP  RH WIND       PRES   REMARKS
NORTH PLATTE   FAIR      32  29  88 NW3       29.88R
IMPERIAL       FAIR      36  28  73 CALM      29.89R
LEXINGTON      FAIR      47  37  65 SW16      29.87F
MCCOOK         FAIR      41  34  76 SW9       29.89R
OGALLALA       FAIR      37  30  76 CALM      29.89R
$$

NEZ005>010-023>029-035>040-094-080300-
NORTH CENTRAL NEBRASKA

CITY           SKY/WX    TMP DP  RH WIND       PRES   REMARKS
VALENTINE      FAIR      38  30  73 W9        29.79S WCI  31
AINSWORTH      FAIR      42  32  69 SW7       29.80R
BROKEN BOW     FAIR      39  31  72 SW5       29.84F
O`NEILL        FAIR      42  36  78 SW9       29.80R
ORD            FAIR      42  36  79 SW14      29.82F
THEDFORD       FAIR      45  31  58 W13G20    29.83S
$$

NEZ041-046>049-061>064-073>077-083>087-080300-
SOUTH CENTRAL NEBRASKA

CITY           SKY/WX    TMP DP  RH WIND       PRES   REMARKS
GRAND ISLAND   FAIR      45  33  63 S13       29.89F
AURORA         FAIR      43  35  72 S13       29.89F
HASTINGS       FAIR      44  33  65 S9        29.91R
HEBRON         FAIR      43  28  55 S9        29.94S
HOLDREGE       FAIR      43  36  76 S13       29.89F
KEARNEY        FAIR      43  35  73 SW13      29.88F
YORK           FAIR      41  32  70 S14       29.91R
$$

NEZ011>018-030>034-042>045-080300-
NORTHEAST NEBRASKA

CITY           SKY/WX    TMP DP  RH WIND       PRES   REMARKS
NORFOLK        FAIR      43  33  68 S21       29.83F
ALBION         FAIR      37  33  85 S3        29.85F
BLAIR          FAIR      44  29  54 S22       29.90S
COLUMBUS       FAIR      44  32  62 S13       29.89F
FREMONT        FAIR      45  30  55 S13       29.91R
TEKAMAH        FAIR      39  29  67 S14       29.90S WCI  31
WAYNE          FAIR      42  32  67 S16       29.83F
$$

NEZ050>053-065>068-078-088>093-080300-
SOUTHEAST NEBRASKA

CITY           SKY/WX    TMP DP  RH WIND       PRES   REMARKS
LINCOLN        FAIR      44  26  49 S13       29.94S
OMAHA EPPLEY   FAIR      44  28  53 S21       29.92F
BEATRICE       FAIR      44  27  50 S9        29.96S
FALLS CITY     FAIR      42  29  59 S12       30.01S
NEBRASKA CITY  FAIR      43  28  57 S18G24    29.97F
PLATTSMOUTH    FAIR      44  29  56 S20G25    29.94F
$$

NEZ044-045-051>053-067-080300-
OMAHA AREA

CITY           SKY/WX    TMP DP  RH WIND       PRES   REMARKS
OMAHA EPPLEY   FAIR      44  28  53 S21       29.92F
BLAIR          FAIR      44  29  54 S22       29.90S
FREMONT        FAIR      45  30  55 S13       29.91R
MILLARD        FAIR      46  27  48 S10       29.93S
OFFUTT AFB     CLEAR     45  27  49 SE13      29.94F
PLATTSMOUTH    FAIR      44  29  56 S20G25    29.94F
WAHOO          FAIR      38  28  67 SE9       29.92S WCI  31
$$


 

View Past Reports for Omaha, NE.

Products Courtesy of NOAA-NWS
NWS Information Parsing Script by Ken True at Saratoga Weather - Script by SE Lincoln Weather.